When you browse on this site, cookies collect data to enhance your experience and personalize the content and advertising you see.
Visit our Privacy Policy to learn more. By continuing to use the site, you agree to this use of cookies and data.
  • En España
  • Lista de países
  • Para 7 días
  • Temperatura del agua
  • Mapa Satelital
  • El tiempo en el mapa
  • Informadores
  • user-avatar
    Iniciar sesión

    Tiempo cada hora La Massana

    Hoy, 20 Enero, Domingo

    Tiempo Temperatura Precipitaciones Viento Presión Humedad
    00:00 -4°C° 0 mm 1 mps 601 mmHg 80%
    01:00 -4°C° 0.1 mm 1 mps 600 mmHg 82%
    02:00 -4°C° 0.1 mm 1 mps 600 mmHg 85%
    03:00 -3°C° 0.1 mm 1 mps 600 mmHg 87%
    04:00 -3°C° 0.1 mm 1 mps 601 mmHg 86%
    05:00 -3°C° 0.1 mm 1 mps 601 mmHg 84%
    06:00 -3°C° 0.1 mm 1 mps 601 mmHg 83%
    07:00 -3°C° 0 mm 1 mps 601 mmHg 77%
    08:00 -4°C° 0 mm 2 mps 602 mmHg 72%
    09:00 -4°C° 0 mm 2 mps 603 mmHg 67%
    10:00 -3°C° 0 mm 2 mps 603 mmHg 64%
    11:00 -2°C° 0 mm 2 mps 603 mmHg 62%
    12:00 -2°C° 0 mm 2 mps 604 mmHg 59%
    13:00 -2°C° 0 mm 3 mps 604 mmHg 61%
    14:00 -2°C° 0 mm 3 mps 604 mmHg 62%
    15:00 -2°C° 0 mm 3 mps 603 mmHg 64%
    16:00 -3°C° 0 mm 2 mps 603 mmHg 72%
    17:00 -5°C° 0 mm 2 mps 603 mmHg 80%
    18:00 -6°C° 0 mm 2 mps 603 mmHg 88%
    19:00 -6°C° 0 mm 2 mps 603 mmHg 88%
    20:00 -6°C° 0 mm 2 mps 604 mmHg 88%
    21:00 -6°C° 0 mm 2 mps 604 mmHg 88%
    22:00 -6°C° 0.1 mm 2 mps 604 mmHg 88%
    23:00 -6°C° 0.1 mm 2 mps 604 mmHg 89%

    Mañana, 21 Enero, Lunes

    Tiempo Temperatura Precipitaciones Viento Presión Humedad
    00:00 -6°C° 0.1 mm 2 mps 605 mmHg 89%
    01:00 -6°C° 0.1 mm 2 mps 605 mmHg 89%
    02:00 -6°C° 0.1 mm 2 mps 605 mmHg 88%
    03:00 -6°C° 0.1 mm 2 mps 605 mmHg 88%
    04:00 -6°C° 0.2 mm 2 mps 605 mmHg 88%
    05:00 -6°C° 0.2 mm 2 mps 605 mmHg 88%
    06:00 -6°C° 0.2 mm 2 mps 605 mmHg 88%
    07:00 -6°C° 0.1 mm 2 mps 605 mmHg 85%
    08:00 -7°C° 0.1 mm 3 mps 606 mmHg 82%
    09:00 -6°C° 0.1 mm 3 mps 606 mmHg 79%
    10:00 -6°C° 0.1 mm 3 mps 607 mmHg 75%
    11:00 -5°C° 0.1 mm 3 mps 607 mmHg 72%
    12:00 -5°C° 0.1 mm 3 mps 607 mmHg 68%
    13:00 -5°C° 0.1 mm 3 mps 607 mmHg 69%
    14:00 -5°C° 0.1 mm 3 mps 607 mmHg 69%
    15:00 -5°C° 0.1 mm 3 mps 607 mmHg 69%
    16:00 -7°C° 0 mm 3 mps 606 mmHg 75%
    17:00 -7°C° 0 mm 2 mps 606 mmHg 81%
    18:00 -8°C° 0 mm 2 mps 606 mmHg 87%
    19:00 -8°C° 0 mm 2 mps 606 mmHg 87%
    20:00 -9°C° 0 mm 2 mps 606 mmHg 88%
    21:00 -9°C° 0 mm 2 mps 606 mmHg 88%
    22:00 -9°C° 0 mm 2 mps 606 mmHg 87%
    23:00 -10°C° 0 mm 2 mps 605 mmHg 86%

    Pasado mañana, 22 Enero, Martes

    Tiempo Temperatura Precipitaciones Viento Presión Humedad
    00:00 -10°C° 0 mm 2 mps 605 mmHg 85%
    01:00 -12°C° 0 mm 2 mps 605 mmHg 78%
    02:00 -12°C° 0 mm 2 mps 604 mmHg 70%
    03:00 -12°C° 0 mm 2 mps 604 mmHg 63%
    04:00 -12°C° 0 mm 2 mps 603 mmHg 59%
    05:00 -12°C° 0 mm 2 mps 603 mmHg 55%
    06:00 -12°C° 0 mm 2 mps 602 mmHg 50%
    07:00 -9°C° 0 mm 2 mps 603 mmHg 48%
    08:00 -7°C° 0 mm 1 mps 603 mmHg 46%
    09:00 -4°C° 0 mm 1 mps 604 mmHg 44%
    10:00 -3°C° 0 mm 1 mps 603 mmHg 45%
    11:00 -1°C° 0 mm 1 mps 603 mmHg 45%
    12:00 0°C° 0 mm 1 mps 603 mmHg 45%
    13:00 -1°C° 0.6 mm 1 mps 602 mmHg 56%
    14:00 -2°C° 0.6 mm 1 mps 601 mmHg 67%
    15:00 -3°C° 0.6 mm 1 mps 599 mmHg 78%
    16:00 -5°C° 0.7 mm 2 mps 599 mmHg 82%
    17:00 -6°C° 0.7 mm 2 mps 598 mmHg 86%
    18:00 -7°C° 0.7 mm 3 mps 598 mmHg 90%
    19:00 -7°C° 0.8 mm 3 mps 598 mmHg 90%
    20:00 -8°C° 0.8 mm 3 mps 597 mmHg 91%
    21:00 -8°C° 0.8 mm 3 mps 597 mmHg 91%
    22:00 -8°C° 1.1 mm 2 mps 597 mmHg 91%
    23:00 -8°C° 1.1 mm 2 mps 596 mmHg 92%

    23 Enero, Miércoles

    Tiempo Temperatura Precipitaciones Viento Presión Humedad
    00:00 -8°C° 1.1 mm 2 mps 596 mmHg 92%
    01:00 -10°C° 1.4 mm 3 mps 595 mmHg 92%
    02:00 -10°C° 1.4 mm 3 mps 595 mmHg 93%
    03:00 -11°C° 1.4 mm 4 mps 594 mmHg 93%
    04:00 -12°C° 1.1 mm 4 mps 594 mmHg 93%
    05:00 -12°C° 1.1 mm 4 mps 593 mmHg 94%
    06:00 -14°C° 1.1 mm 4 mps 593 mmHg 94%
    07:00 -14°C° 0.9 mm 4 mps 593 mmHg 93%
    08:00 -14°C° 0.9 mm 5 mps 593 mmHg 92%
    09:00 -14°C° 0.9 mm 5 mps 593 mmHg 91%
    10:00 -15°C° 0.4 mm 6 mps 593 mmHg 89%
    11:00 -15°C° 0.4 mm 7 mps 593 mmHg 88%
    12:00 -15°C° 0.4 mm 7 mps 593 mmHg 87%
    13:00 -15°C° 0.4 mm 7 mps 593 mmHg 87%
    14:00 -15°C° 0.4 mm 7 mps 593 mmHg 88%
    15:00 -16°C° 0.4 mm 8 mps 593 mmHg 88%
    16:00 -17°C° 0.4 mm 7 mps 593 mmHg 89%
    17:00 -17°C° 0.4 mm 7 mps 594 mmHg 90%
    18:00 -17°C° 0.4 mm 7 mps 594 mmHg 91%
    19:00 -17°C° 0.5 mm 7 mps 594 mmHg 91%
    20:00 -17°C° 0.5 mm 7 mps 595 mmHg 91%
    21:00 -17°C° 0.5 mm 7 mps 595 mmHg 91%
    22:00 -17°C° 0.4 mm 7 mps 595 mmHg 91%
    23:00 -17°C° 0.4 mm 7 mps 595 mmHg 90%

    24 Enero, Jueves

    Tiempo Temperatura Precipitaciones Viento Presión Humedad
    00:00 -17°C° 0.4 mm 7 mps 595 mmHg 90%
    01:00 -18°C° 0.1 mm 7 mps 595 mmHg 88%
    02:00 -18°C° 0.1 mm 8 mps 595 mmHg 87%
    03:00 -18°C° 0.1 mm 8 mps 594 mmHg 85%
    04:00 -18°C° 0 mm 7 mps 595 mmHg 85%
    05:00 -19°C° 0 mm 7 mps 595 mmHg 85%
    06:00 -18°C° 0 mm 6 mps 595 mmHg 84%
    07:00 -18°C° 0.1 mm 7 mps 595 mmHg 83%
    08:00 -17°C° 0.1 mm 7 mps 596 mmHg 83%
    09:00 -15°C° 0.1 mm 7 mps 597 mmHg 82%
    10:00 -15°C° 0 mm 7 mps 598 mmHg 81%
    11:00 -14°C° 0 mm 7 mps 598 mmHg 81%
    12:00 -12°C° 0 mm 6 mps 598 mmHg 80%
    13:00 -12°C° 0 mm 6 mps 598 mmHg 80%
    14:00 -12°C° 0 mm 6 mps 598 mmHg 81%
    15:00 -12°C° 0 mm 6 mps 598 mmHg 82%
    16:00 -14°C° 0 mm 5 mps 598 mmHg 84%
    17:00 -15°C° 0 mm 5 mps 598 mmHg 85%
    18:00 -17°C° 0 mm 5 mps 598 mmHg 87%
    19:00 -17°C° 0 mm 5 mps 599 mmHg 88%
    20:00 -17°C° 0 mm 5 mps 600 mmHg 88%
    21:00 -15°C° 0 mm 4 mps 600 mmHg 89%
    22:00 -16°C° 0 mm 4 mps 600 mmHg 88%
    23:00 -16°C° 0 mm 4 mps 600 mmHg 88%

    25 Enero, Viernes

    Tiempo Temperatura Precipitaciones Viento Presión Humedad
    00:00 -17°C° 0 mm 4 mps 600 mmHg 88%
    01:00 -16°C° 0 mm 3 mps 600 mmHg 87%
    02:00 -17°C° 0 mm 3 mps 600 mmHg 86%
    03:00 -17°C° 0 mm 3 mps 600 mmHg 84%
    04:00 -17°C° 0 mm 3 mps 600 mmHg 83%
    05:00 -17°C° 0 mm 3 mps 601 mmHg 82%
    06:00 -17°C° 0 mm 3 mps 601 mmHg 81%
    07:00 -16°C° 0 mm 3 mps 602 mmHg 78%
    08:00 -14°C° 0 mm 3 mps 603 mmHg 75%
    09:00 -13°C° 0 mm 3 mps 604 mmHg 72%
    10:00 -10°C° 0 mm 3 mps 605 mmHg 70%
    11:00 -8°C° 0 mm 3 mps 606 mmHg 69%
    12:00 -8°C° 0 mm 4 mps 607 mmHg 67%
    13:00 -7°C° 0 mm 3 mps 606 mmHg 68%
    14:00 -7°C° 0 mm 3 mps 606 mmHg 70%
    15:00 -7°C° 0 mm 3 mps 606 mmHg 71%
    16:00 -9°C° 0 mm 3 mps 605 mmHg 71%
    17:00 -13°C° 0 mm 3 mps 605 mmHg 70%
    18:00 -15°C° 0 mm 3 mps 604 mmHg 70%
    19:00 -15°C° 0 mm 3 mps 604 mmHg 69%
    20:00 -15°C° 0 mm 3 mps 605 mmHg 69%
    21:00 -15°C° 0 mm 3 mps 605 mmHg 69%
    22:00 -15°C° 0 mm 3 mps 605 mmHg 68%
    23:00 -15°C° 0 mm 3 mps 605 mmHg 68%
    Mostrar más